Date String (YYYY-MM-DD hh:mm:ss) UTC,Instrument flags,Ambient pressure (hPa),Sample flow (lpm),Bypass flow (lpm),Sample temperature (°C),Ambient temperature (°C),ASC tube jacket temperature (°C),LED temperature (°C),Box temperature (°C),Sample RH (%),Span deviation,Mass concentration (μg/m³),Mass concentration (μg/m³),Mass concentration (μg/m³)
DateTimeUTC,F1_M11,P_M11,Q1_M11,Q2_M11,T1_M11,T2_M11,T3_M11,T4_M11,T5_M11,U1_M11,ZSPAN_M11,X2_M11,X0_M11,X1_M11
2021-10-25 06:00:00,,0824.0,5.00,0.00,29.7,28.7,00.0,38.8,31.4,11.4,0000.0,0004.04,0018.42,0002.10
2021-10-25 06:01:00,,0824.0,5.00,0.00,29.7,28.7,00.0,38.8,31.4,11.4,0000.0,0004.05,0018.88,0002.10
2021-10-25 06:02:00,,0823.9,5.00,0.00,29.7,28.7,00.0,38.8,31.4,11.4,0000.0,0004.05,0019.61,0002.11
2021-10-25 06:03:00,,0823.9,5.00,0.00,29.7,28.7,00.0,38.8,31.3,11.4,0000.0,0004.02,0018.76,0002.12
2021-10-25 06:04:00,,0823.8,4.99,0.00,29.6,28.7,00.0,38.8,31.3,11.4,0000.0,0004.06,0020.10,0002.15
2021-10-25 06:05:00,,0823.7,5.02,0.00,29.6,28.7,00.0,38.8,31.3,11.4,0000.0,0004.09,0019.74,0002.16
2021-10-25 06:06:00,,0823.7,4.99,0.00,29.6,28.7,00.0,38.8,31.4,11.4,0000.0,0004.12,0019.41,0002.17
2021-10-25 06:07:00,,0823.7,4.99,0.00,29.6,28.7,00.0,38.7,31.4,11.4,0000.0,0004.13,0019.95,0002.19
2021-10-25 06:08:00,,0823.7,4.99,0.00,29.6,28.7,00.0,38.7,31.3,11.4,0000.0,0004.13,0019.68,0002.21
2021-10-25 06:09:00,,0823.7,5.00,0.00,29.6,28.7,00.0,38.7,31.3,11.4,0000.0,0004.12,0018.43,0002.20
2021-10-25 06:10:00,,0823.7,5.00,0.00,29.6,28.6,00.0,38.7,31.3,11.4,0000.0,0004.09,0017.57,0002.19
2021-10-25 06:11:00,,0823.7,5.00,0.00,29.6,28.6,00.0,38.7,31.3,11.3,0000.0,0004.02,0017.00,0002.17
2021-10-25 06:12:00,,0823.7,5.01,0.00,29.6,28.6,00.0,38.7,31.3,11.3,0000.0,0003.96,0016.24,0002.16
2021-10-25 06:13:00,,0823.7,5.00,0.00,29.5,28.6,00.0,38.7,31.3,11.3,0000.0,0003.91,0014.61,0002.14
2021-10-25 06:14:00,,0823.8,4.99,0.00,29.5,28.6,00.0,38.7,31.2,11.3,0000.0,0003.91,0014.40,0002.14
2021-10-25 06:15:00,,0823.8,4.99,0.00,29.5,28.6,00.0,38.7,31.2,11.3,0000.0,0003.81,0012.68,0002.10
2021-10-25 06:16:00,,0823.8,5.01,0.00,29.5,28.6,00.0,38.7,31.2,11.3,0000.0,0003.71,0012.27,0002.08
2021-10-25 06:17:00,,0824.0,5.00,0.00,29.5,28.5,00.0,38.7,31.2,11.3,0000.0,0003.62,0012.22,0002.05
2021-10-25 06:18:00,,0823.9,4.99,0.00,29.5,28.5,00.0,38.7,31.2,11.3,0000.0,0003.52,0011.62,0002.02
2021-10-25 06:19:00,,0823.9,5.00,0.00,29.5,28.5,00.0,38.6,31.2,11.4,0000.0,0003.42,0011.02,0001.98
2021-10-25 06:20:00,,0823.9,5.00,0.00,29.5,28.5,00.0,38.6,31.2,11.3,0000.0,0003.36,0010.51,0001.95
2021-10-25 06:21:00,,0824.0,5.00,0.00,29.5,28.5,00.0,38.6,31.2,11.3,0000.0,0003.29,0009.50,0001.94
2021-10-25 06:22:00,,0824.0,5.00,0.00,29.4,28.5,00.0,38.6,31.1,11.3,0000.0,0003.30,0009.86,0001.94
2021-10-25 06:23:00,,0823.9,4.99,0.00,29.4,28.5,00.0,38.6,31.1,11.4,0000.0,0003.25,0010.14,0001.94
2021-10-25 06:24:00,,0823.9,5.00,0.00,29.4,28.5,00.0,38.6,31.1,11.4,0000.0,0003.28,0010.03,0001.94
2021-10-25 06:25:00,,0824.0,5.00,0.00,29.4,28.4,00.0,38.6,31.1,11.4,0000.0,0003.28,0010.44,0001.91
2021-10-25 06:26:00,,0824.0,5.01,0.00,29.4,28.4,00.0,38.6,31.0,11.4,0000.0,0003.28,0010.31,0001.91
2021-10-25 06:27:00,,0824.0,5.00,0.00,29.4,28.4,00.0,38.6,31.0,11.4,0000.0,0003.26,0010.30,0001.90
2021-10-25 06:28:00,,0823.9,5.00,0.00,29.4,28.4,00.0,38.6,31.0,11.3,0000.0,0003.25,0009.91,0001.89
2021-10-25 06:29:00,,0823.9,5.00,0.00,29.4,28.4,00.0,38.5,31.0,11.3,0000.0,0003.23,0009.90,0001.87
2021-10-25 06:30:00,,0823.8,5.01,0.00,29.4,28.4,00.0,38.5,31.0,11.3,0000.0,0003.20,0010.20,0001.87
2021-10-25 06:31:00,,0823.7,4.99,0.00,29.4,28.4,00.0,38.5,31.0,11.3,0000.0,0003.23,0010.64,0001.88
2021-10-25 06:32:00,,0823.8,5.01,0.00,29.3,28.4,00.0,38.5,31.0,11.3,0000.0,0003.27,0011.27,0001.86
2021-10-25 06:33:00,,0823.8,5.00,0.00,29.3,28.4,00.0,38.5,31.0,11.3,0000.0,0003.24,0011.24,0001.84
2021-10-25 06:34:00,,0823.7,5.01,0.00,29.3,28.4,00.0,38.5,31.0,11.3,0000.0,0003.26,0011.42,0001.84
2021-10-25 06:35:00,,0823.7,5.03,0.00,29.3,28.4,00.0,38.5,31.1,11.2,0000.0,0003.26,0011.82,0001.82
2021-10-25 06:36:00,,0823.7,5.00,0.00,29.3,28.4,00.0,38.5,31.1,11.2,0000.0,0003.25,0011.54,0001.82
2021-10-25 06:37:00,,0823.7,5.00,0.00,29.3,28.4,00.0,38.5,31.0,11.2,0000.0,0003.25,0011.96,0001.81
2021-10-25 06:38:00,,0823.7,5.00,0.00,29.3,28.4,00.0,38.5,31.0,11.2,0000.0,0003.22,0012.39,0001.80
2021-10-25 06:39:00,,0823.7,5.00,0.00,29.3,28.4,00.0,38.5,31.0,11.2,0000.0,0003.22,0012.62,0001.80
2021-10-25 06:40:00,,0823.6,5.00,0.00,29.3,28.3,00.0,38.5,31.0,11.2,0000.0,0003.26,0012.41,0001.81
2021-10-25 06:41:00,,0823.5,5.00,0.00,29.3,28.3,00.0,38.5,31.0,11.2,0000.0,0003.30,0012.58,0001.81
2021-10-25 06:42:00,,0823.4,5.01,0.00,29.3,28.3,00.0,38.5,31.0,11.2,0000.0,0003.27,0012.33,0001.81
2021-10-25 06:43:00,,0823.3,4.99,0.00,29.3,28.3,00.0,38.4,30.9,11.2,0000.0,0003.21,0012.08,0001.82
2021-10-25 06:44:00,,0823.3,5.01,0.00,29.3,28.3,00.0,38.4,30.9,11.2,0000.0,0003.26,0012.12,0001.82
2021-10-25 06:45:00,,0823.4,4.99,0.00,29.2,28.3,00.0,38.4,30.9,11.2,0000.0,0003.28,0013.39,0001.83
2021-10-25 06:46:00,,0823.3,5.00,0.00,29.2,28.3,00.0,38.4,30.9,11.2,0000.0,0003.27,0012.64,0001.84
2021-10-25 06:47:00,,0823.3,5.01,0.00,29.2,28.3,00.0,38.4,30.9,11.2,0000.0,0003.30,0013.32,0001.85
2021-10-25 06:48:00,,0823.3,4.99,0.00,29.2,28.3,00.0,38.4,30.9,11.2,0000.0,0003.34,0013.47,0001.87
2021-10-25 06:49:00,,0823.3,5.00,0.00,29.2,28.3,00.0,38.4,30.9,11.3,0000.0,0003.42,0013.45,0001.89
2021-10-25 06:50:00,,0823.3,5.00,0.00,29.2,28.2,00.0,38.4,30.8,11.3,0000.0,0003.40,0013.43,0001.90
2021-10-25 06:51:00,,0823.3,4.99,0.00,29.2,28.2,00.0,38.4,30.9,11.3,0000.0,0003.39,0013.95,0001.91
2021-10-25 06:52:00,,0823.3,5.00,0.00,29.2,28.2,00.0,38.4,30.9,11.3,0000.0,0003.38,0013.94,0001.92
2021-10-25 06:53:00,,0823.4,5.01,0.00,29.2,28.2,00.0,38.4,30.9,11.3,0000.0,0003.40,0014.55,0001.93
2021-10-25 06:54:00,,0823.4,4.99,0.00,29.2,28.2,00.0,38.4,30.9,11.3,0000.0,0003.42,0015.30,0001.93
2021-10-25 06:55:00,,0823.3,5.00,0.00,29.2,28.2,00.0,38.3,30.9,11.3,0000.0,0003.36,0014.64,0001.94
2021-10-25 06:56:00,,0823.4,5.00,0.00,29.2,28.2,00.0,38.3,30.8,11.3,0000.0,0003.35,0013.22,0001.94
2021-10-25 06:57:00,,0823.4,5.00,0.00,29.2,28.2,00.0,38.3,30.8,11.3,0000.0,0003.33,0013.11,0001.95
2021-10-25 06:58:00,,0823.4,5.00,0.00,29.2,28.2,00.0,38.3,30.8,11.4,0000.0,0003.29,0011.84,0001.96
2021-10-25 06:59:00,,0823.3,5.00,0.00,29.1,28.2,00.0,38.3,30.8,11.4,0000.0,0003.23,0011.19,0001.96
